Location: Newark
(42.9858°N, 0.6717°E)
Time: 21:45:28
(UTC+00:00)

S-56A Canister/Altair - Pass Details

Date: 27 November 2019
Orbit: 633 x 2499 km, 38.9° (Epoch: 11 December)

Event Time Altitude Azimuth Distance (km) Brightness Sun altitude
Rises 14:59:19 0° 246° (WSW) 6,047 13.6 11.8°
Reaches altitude 10° 15:03:35 10° 243° (WSW) 4,894 13.5 11.3°
Maximum altitude 15:16:42 64° 167° (SSE) 1,974 10.0 9.5°
Drops below altitude 10° 15:25:38 10° 89° (E) 3,436 10.4 8.3°
Sets 15:28:07 0° 86° (E) 4,191 10.8 7.9°
